{"data":{"norad_id":66938,"epoch":"2026-05-24T23:40:41.458080Z","epoch_age_seconds":86422,"freshness":"FRESH","line1":"1 66938U 25286P   26144.98659095  .00015776  00000+0  47690-3 0  9997","line2":"2 66938  53.1601   3.6680 0000918  85.3475 274.7633 15.34409689 27104","mean_motion":15.34409689,"eccentricity":9.18e-5,"inclination_deg":53.1601,"raan_deg":3.668,"arg_perigee_deg":85.3475,"mean_anomaly_deg":274.7633,"bstar":0.0004769,"rev_number":2710,"period_min":93.8471654815,"perigee_km":462.04645611835,"apogee_km":463.30242909921,"semimajor_km":6840.8114426088,"source":"CELESTRAK","updated_at":"2026-05-25T13:38:21.388015Z"}}